TimeADT,TemperatureF,Dew PointF,Humidity,Sea Level PressureIn,VisibilityMPH,Wind Direction,Wind SpeedMPH,Gust SpeedMPH,PrecipitationIn,Events,Conditions,WindDirDegrees,DateUTC
12:00 AM,32.0,32.0,100,29.91,15.0,NE,8.1,-,N/A,,Overcast,40,2013-04-14 03:00:00
1:00 AM,32.0,32.0,100,29.92,15.0,North,6.9,-,N/A,,Overcast,10,2013-04-14 04:00:00
2:00 AM,32.0,32.0,100,29.92,15.0,NNE,6.9,-,N/A,Snow,Light Snow Showers,30,2013-04-14 05:00:00
3:00 AM,32,32,98,29.94,15,NE,8.1,,,Snow,Light Snow Showers,40,2013-04-14 06:00:00
3:00 AM,32.0,32.0,100,29.94,15.0,NE,8.1,-,N/A,Snow,Light Snow Showers,40,2013-04-14 06:00:00
3:28 AM,32.0,32.0,100,29.94,15.0,NNE,6.9,-,N/A,Snow,Light Snow Showers,30,2013-04-14 06:28:00
4:00 AM,32.0,32.0,100,29.95,12.0,NNE,5.8,-,N/A,Snow,Light Snow Showers,20,2013-04-14 07:00:00
5:00 AM,32.0,32.0,100,29.96,3.0,NNE,5.8,-,N/A,Snow,Light Snow,30,2013-04-14 08:00:00
6:00 AM,32.0,32.0,100,29.97,3.0,NE,6.9,-,N/A,Snow,Light Snow,50,2013-04-14 09:00:00
7:00 AM,32.0,32.0,100,29.97,3.0,ENE,4.6,-,N/A,Snow,Light Snow,60,2013-04-14 10:00:00
8:00 AM,32.0,32.0,100,29.99,4.0,ENE,8.1,-,N/A,Snow,Light Snow,60,2013-04-14 11:00:00
8:39 AM,32.0,30.2,93,30.00,3.0,East,6.9,-,N/A,Snow,Light Snow,80,2013-04-14 11:39:00
9:00 AM,31,31,99,30.01,2,ENE,6.9,,,Snow,Light Snow,70,2013-04-14 12:00:00
9:00 AM,32.0,30.2,93,30.01,2.0,ENE,6.9,-,N/A,Snow,Light Snow,70,2013-04-14 12:00:00
10:00 AM,32.0,32.0,100,30.01,2.0,ENE,5.8,-,N/A,Snow,Light Snow,70,2013-04-14 13:00:00
10:25 AM,32.0,32.0,100,30.01,1.0,East,5.8,-,N/A,Snow,Light Snow,90,2013-04-14 13:25:00
11:00 AM,33.8,33.8,100,30.01,1.5,East,6.9,-,N/A,Snow,Light Snow,100,2013-04-14 14:00:00
12:00 PM,35.6,33.8,93,30.02,2.0,ESE,8.1,-,N/A,Snow,Light Snow,110,2013-04-14 15:00:00
1:00 PM,35.6,33.8,93,30.01,3.0,ESE,6.9,-,N/A,Snow,Light Snow,120,2013-04-14 16:00:00
1:28 PM,35.6,33.8,93,30.01,10.0,ESE,6.9,-,N/A,Rain,Light Rain,120,2013-04-14 16:28:00
2:00 PM,35.6,35.6,100,30.01,12.0,South,4.6,-,N/A,Rain,Light Rain,170,2013-04-14 17:00:00
3:00 PM,38,35,87,30.02,15,SSE,5.8,,,Rain,Light Rain,160,2013-04-14 18:00:00
3:00 PM,37.4,35.6,93,30.02,15.0,South,6.9,-,N/A,Rain,Light Rain,170,2013-04-14 18:00:00
4:00 PM,39.2,35.6,87,30.01,15.0,South,8.1,-,N/A,Rain,Light Rain Showers,180,2013-04-14 19:00:00
4:41 PM,39.2,33.8,81,30.02,15.0,SSE,6.9,-,N/A,,Mostly Cloudy,160,2013-04-14 19:41:00
5:00 PM,39.2,35.6,87,30.02,15.0,South,3.5,-,N/A,,Mostly Cloudy,180,2013-04-14 20:00:00
6:00 PM,37.4,33.8,87,30.04,15.0,SSW,5.8,-,N/A,,Overcast,200,2013-04-14 21:00:00
7:00 PM,37.4,33.8,87,30.06,0.0,North,3.5,-,N/A,,Overcast,360,2013-04-14 22:00:00
7:14 PM,35.6,35.6,100,30.06,12.0,North,3.5,-,N/A,Rain,Light Rain Showers,10,2013-04-14 22:14:00
7:26 PM,35.6,35.6,100,30.06,12.0,NNE,4.6,-,N/A,Rain,Light Rain Showers,20,2013-04-14 22:26:00
7:50 PM,35.6,35.6,100,30.07,5.0,NNE,3.5,-,N/A,Rain,Light Rain Showers,20,2013-04-14 22:50:00
8:00 PM,35.6,35.6,100,30.07,4.0,NNE,3.5,-,N/A,Rain,Light Rain Showers,20,2013-04-14 23:00:00
8:16 PM,35.6,33.8,93,30.07,5.0,NE,3.5,-,N/A,Rain,Light Rain Showers,50,2013-04-14 23:16:00
8:43 PM,33.8,33.8,100,30.08,5.0,ENE,4.6,-,N/A,Rain-Snow,Light Rain,70,2013-04-14 23:43:00
9:00 PM,34,34,98,30.10,6,ENE,4.6,,,Snow,Light Snow,70,2013-04-15 00:00:00
9:00 PM,33.8,33.8,100,30.09,6.0,ENE,4.6,-,N/A,Rain-Snow,Light Rain,60,2013-04-15 00:00:00
9:35 PM,33.8,33.8,100,30.10,6.0,East,6.9,-,N/A,Snow,Light Drizzle,90,2013-04-15 00:35:00
10:00 PM,33.8,33.8,100,30.12,8.0,East,4.6,-,N/A,Snow,Light Drizzle,100,2013-04-15 01:00:00
10:26 PM,33.8,33.8,100,30.11,10.0,East,5.8,-,N/A,,Light Drizzle,100,2013-04-15 01:26:00
11:00 PM,33.8,33.8,100,30.12,10.0,East,3.5,-,N/A,,Light Drizzle,90,2013-04-15 02:00:00